GW4366 Weather Reports


time (UTC)temp
C
wind
direction
speed
KPH
gust
KPH
rain 1hr
cm
rain 24hr
cm
rain mn
cm
humidity
%
barometer
mb
20260505010004 20 221 0.0 3.2 0.00 0.00 0.00 59 985.9
20260505003003 21 214 1.6 9.7 0.00 0.00 0.00 55 985.9
20260505000010 22 190 1.6 11.3 0.00 0.00 0.00 54 985.6
20260504233001 23 193 3.2 14.5 0.00 0.00 0.00 52 985.7
20260504230007 23 183 6.4 20.9 0.00 0.00 0.00 49 985.7
20260504223001 25 188 4.8 25.7 0.00 0.00 0.00 47 985.8
20260504220004 25 168 4.8 19.3 0.00 0.00 0.00 48 986.0
20260504213008 25 126 9.7 22.5 0.00 0.00 0.00 48 986.2
20260504210003 26 196 4.8 24.1 0.00 0.00 0.00 47 986.5
20260504200009 26 265 12.9 27.4 0.00 0.00 0.00 45 987.0
20260504190009 26 226 3.2 19.3 0.00 0.00 0.00 52 987.7
20260504173002 26 233 1.6 17.7 0.00 0.00 0.00 56 988.6
20260504050006 13 218 3.2 6.4 0.00 0.00 0.00 69 990.9
20260504043008 13 223 1.6 6.4 0.00 0.00 0.00 70 991.2
20260504040007 13 228 0.0 1.6 0.00 0.00 0.00 70 991.2
20260504033002 13 225 0.0 0.0 0.00 0.00 0.00 71 991.3
20260504030007 13 237 0.0 0.0 0.00 0.00 0.00 68 991.4
20260504023005 14 243 0.0 6.4 0.00 0.00 0.00 66 991.4
20260504020007 15 231 0.0 0.0 0.00 0.00 0.00 64 991.4
20260504013004 15 224 0.0 6.4 0.00 0.00 0.00 65 991.2